When you browse on this site, cookies collect data to enhance your experience and personalize the content and advertising you see.
Visit our Privacy Policy to learn more. By continuing to use the site, you agree to this use of cookies and data.
  • En España
  • Lista de países
  • Para 7 días
  • Temperatura del agua
  • Mapa Satelital
  • El tiempo en el mapa
  • Informadores
  • user-avatar
    Iniciar sesión

    Tiempo cada hora Ashtarak

    Hoy, 18 Diciembre, Martes

    Tiempo Temperatura Precipitaciones Viento Presión Humedad
    00:00 +3°C° 0.5 mm 1 mps 657 mmHg 82%
    01:00 +3°C° 0.3 mm 1 mps 657 mmHg 82%
    02:00 +3°C° 0.3 mm 1 mps 657 mmHg 83%
    03:00 +3°C° 0 mm 1 mps 657 mmHg 83%
    04:00 +2°C° 0.2 mm 1 mps 657 mmHg 83%
    05:00 +2°C° 0.2 mm 1 mps 657 mmHg 84%
    06:00 +2°C° 0.2 mm 1 mps 657 mmHg 84%
    07:00 +3°C° 0.1 mm 1 mps 657 mmHg 83%
    08:00 +3°C° 0.1 mm 1 mps 658 mmHg 81%
    09:00 +4°C° 0 mm 1 mps 658 mmHg 79%
    10:00 +5°C° 0.2 mm 1 mps 658 mmHg 78%
    11:00 +5°C° 0.2 mm 1 mps 658 mmHg 76%
    12:00 +5°C° 0.2 mm 2 mps 658 mmHg 74%
    13:00 +5°C° 0.2 mm 2 mps 658 mmHg 74%
    14:00 +5°C° 0.2 mm 2 mps 658 mmHg 73%
    15:00 +5°C° 0.2 mm 2 mps 658 mmHg 73%
    16:00 +5°C° 0.2 mm 2 mps 658 mmHg 75%
    17:00 +4°C° 0.2 mm 2 mps 658 mmHg 77%
    18:00 +4°C° 0.2 mm 1 mps 659 mmHg 79%
    19:00 +4°C° 0.2 mm 1 mps 659 mmHg 79%
    20:00 +3°C° 0.2 mm 1 mps 659 mmHg 79%
    21:00 +3°C° 0.2 mm 1 mps 659 mmHg 79%
    22:00 +3°C° 0.1 mm 1 mps 660 mmHg 79%
    23:00 +3°C° 0.1 mm 1 mps 660 mmHg 79%

    Mañana, 19 Diciembre, Miércoles

    Tiempo Temperatura Precipitaciones Viento Presión Humedad
    00:00 +3°C° 0.1 mm 1 mps 660 mmHg 80%
    01:00 +2°C° 0.1 mm 1 mps 660 mmHg 80%
    02:00 +1°C° 0.1 mm 2 mps 660 mmHg 80%
    03:00 +1°C° 0.1 mm 2 mps 660 mmHg 81%
    04:00 +1°C° 0 mm 2 mps 660 mmHg 81%
    05:00 +1°C° 0 mm 2 mps 660 mmHg 81%
    06:00 +1°C° 0 mm 2 mps 660 mmHg 81%
    07:00 +1°C° 0 mm 2 mps 660 mmHg 80%
    08:00 +2°C° 0 mm 2 mps 660 mmHg 78%
    09:00 +2°C° 0 mm 2 mps 661 mmHg 77%
    10:00 +3°C° 0 mm 2 mps 660 mmHg 75%
    11:00 +4°C° 0 mm 2 mps 660 mmHg 73%
    12:00 +4°C° 0 mm 3 mps 660 mmHg 71%
    13:00 +4°C° 0 mm 3 mps 660 mmHg 71%
    14:00 +5°C° 0 mm 2 mps 660 mmHg 71%
    15:00 +5°C° 0 mm 2 mps 659 mmHg 71%
    16:00 +5°C° 0.1 mm 2 mps 659 mmHg 73%
    17:00 +4°C° 0.1 mm 2 mps 659 mmHg 74%
    18:00 +3°C° 0.1 mm 2 mps 659 mmHg 76%
    19:00 +3°C° 0.1 mm 2 mps 659 mmHg 76%
    20:00 +3°C° 0.1 mm 2 mps 660 mmHg 76%
    21:00 +2°C° 0.1 mm 2 mps 660 mmHg 76%
    22:00 +3°C° 0 mm 1 mps 659 mmHg 76%
    23:00 +3°C° 0 mm 1 mps 659 mmHg 77%

    Pasado mañana, 20 Diciembre, Jueves

    Tiempo Temperatura Precipitaciones Viento Presión Humedad
    00:00 +3°C° 0 mm 1 mps 659 mmHg 77%
    01:00 +3°C° 0 mm 1 mps 659 mmHg 77%
    02:00 +3°C° 0 mm 1 mps 659 mmHg 78%
    03:00 +2°C° 0 mm 1 mps 659 mmHg 78%
    04:00 +2°C° 0 mm 1 mps 659 mmHg 79%
    05:00 +2°C° 0 mm 1 mps 659 mmHg 80%
    06:00 +2°C° 0 mm 1 mps 658 mmHg 80%
    07:00 +3°C° 0.1 mm 1 mps 659 mmHg 79%
    08:00 +3°C° 0.1 mm 1 mps 659 mmHg 78%
    09:00 +4°C° 0.1 mm 1 mps 659 mmHg 77%
    10:00 +5°C° 0.1 mm 1 mps 659 mmHg 76%
    11:00 +6°C° 0.1 mm 1 mps 659 mmHg 75%
    12:00 +6°C° 0.1 mm 1 mps 658 mmHg 74%
    13:00 +6°C° 0.2 mm 1 mps 658 mmHg 74%
    14:00 +6°C° 0.2 mm 1 mps 658 mmHg 74%
    15:00 +6°C° 0.2 mm 1 mps 657 mmHg 74%
    16:00 +4°C° 0.2 mm 0 mps 657 mmHg 77%
    17:00 +3°C° 0.2 mm 0 mps 657 mmHg 79%
    18:00 +2°C° 0.2 mm 0 mps 657 mmHg 82%
    19:00 +2°C° 0.2 mm 0 mps 657 mmHg 82%
    20:00 +2°C° 0.2 mm 0 mps 658 mmHg 82%
    21:00 +2°C° 0.2 mm 0 mps 658 mmHg 82%
    22:00 +3°C° 0.2 mm 1 mps 658 mmHg 83%
    23:00 +3°C° 0.2 mm 1 mps 658 mmHg 83%

    21 Diciembre, Viernes

    Tiempo Temperatura Precipitaciones Viento Presión Humedad
    00:00 +3°C° 0.2 mm 1 mps 658 mmHg 83%
    01:00 +3°C° 0.3 mm 1 mps 658 mmHg 83%
    02:00 +3°C° 0.3 mm 1 mps 658 mmHg 84%
    03:00 +2°C° 0.3 mm 1 mps 658 mmHg 84%
    04:00 +2°C° 0.3 mm 1 mps 658 mmHg 84%
    05:00 +2°C° 0.3 mm 1 mps 659 mmHg 84%
    06:00 +2°C° 0.3 mm 1 mps 659 mmHg 84%
    07:00 +3°C° 0.2 mm 1 mps 659 mmHg 82%
    08:00 +3°C° 0.2 mm 1 mps 659 mmHg 80%
    09:00 +4°C° 0.2 mm 1 mps 660 mmHg 79%
    10:00 +4°C° 0.1 mm 1 mps 660 mmHg 76%
    11:00 +5°C° 0.1 mm 1 mps 660 mmHg 74%
    12:00 +6°C° 0.1 mm 1 mps 660 mmHg 72%
    13:00 +6°C° 0.1 mm 1 mps 659 mmHg 71%
    14:00 +6°C° 0.1 mm 1 mps 659 mmHg 70%
    15:00 +6°C° 0.1 mm 1 mps 659 mmHg 69%
    16:00 +5°C° 0 mm 1 mps 659 mmHg 72%
    17:00 +4°C° 0 mm 1 mps 659 mmHg 74%
    18:00 +3°C° 0 mm 1 mps 659 mmHg 77%
    19:00 +2°C° 0 mm 1 mps 659 mmHg 77%
    20:00 +2°C° 0 mm 1 mps 659 mmHg 77%
    21:00 +2°C° 0 mm 1 mps 660 mmHg 77%
    22:00 +2°C° 0 mm 1 mps 659 mmHg 78%
    23:00 0°C° 0 mm 0 mps 659 mmHg 78%

    22 Diciembre, Sábado

    Tiempo Temperatura Precipitaciones Viento Presión Humedad
    00:00 0°C° 0 mm 0 mps 659 mmHg 78%
    01:00 0°C° 0 mm 0 mps 659 mmHg 78%
    02:00 0°C° 0 mm 1 mps 659 mmHg 78%
    03:00 0°C° 0 mm 1 mps 659 mmHg 78%
    04:00 0°C° 0 mm 1 mps 658 mmHg 77%
    05:00 0°C° 0 mm 1 mps 658 mmHg 77%
    06:00 0°C° 0 mm 1 mps 658 mmHg 77%
    07:00 +1°C° 0 mm 1 mps 658 mmHg 75%
    08:00 +1°C° 0 mm 1 mps 658 mmHg 74%
    09:00 +2°C° 0 mm 1 mps 658 mmHg 72%
    10:00 +3°C° 0 mm 1 mps 658 mmHg 70%
    11:00 +4°C° 0 mm 1 mps 658 mmHg 69%
    12:00 +4°C° 0 mm 2 mps 657 mmHg 67%
    13:00 +4°C° 0 mm 2 mps 657 mmHg 67%
    14:00 +4°C° 0 mm 2 mps 657 mmHg 66%
    15:00 +5°C° 0 mm 1 mps 656 mmHg 66%
    16:00 +4°C° 0 mm 1 mps 656 mmHg 68%
    17:00 +3°C° 0 mm 1 mps 656 mmHg 69%
    18:00 +2°C° 0 mm 1 mps 657 mmHg 71%
    19:00 +2°C° 0.1 mm 1 mps 657 mmHg 72%
    20:00 +2°C° 0.1 mm 1 mps 657 mmHg 72%
    21:00 +2°C° 0.1 mm 1 mps 657 mmHg 73%
    22:00 +2°C° 0.2 mm 1 mps 657 mmHg 74%
    23:00 +1°C° 0.2 mm 1 mps 657 mmHg 75%

    23 Diciembre, Domingo

    Tiempo Temperatura Precipitaciones Viento Presión Humedad
    00:00 +1°C° 0.2 mm 1 mps 657 mmHg 77%
    01:00 +1°C° 0.1 mm 1 mps 657 mmHg 77%
    02:00 0°C° 0.1 mm 1 mps 657 mmHg 78%
    03:00 0°C° 0.1 mm 1 mps 657 mmHg 79%
    04:00 0°C° 0 mm 1 mps 657 mmHg 79%
    05:00 -1°C° 0 mm 1 mps 657 mmHg 79%
    06:00 -1°C° 0 mm 1 mps 657 mmHg 79%
    07:00 0°C° 0 mm 1 mps 657 mmHg 77%
    08:00 0°C° 0 mm 1 mps 658 mmHg 75%
    09:00 +1°C° 0 mm 1 mps 658 mmHg 73%
    10:00 +2°C° 0 mm 1 mps 658 mmHg 71%
    11:00 +3°C° 0 mm 1 mps 658 mmHg 68%
    12:00 +3°C° 0 mm 1 mps 658 mmHg 65%
    13:00 +3°C° 0 mm 1 mps 658 mmHg 65%
    14:00 +3°C° 0 mm 1 mps 657 mmHg 64%
    15:00 +2°C° 0 mm 2 mps 657 mmHg 64%
    16:00 +1°C° 0 mm 2 mps 657 mmHg 65%
    17:00 -1°C° 0 mm 2 mps 658 mmHg 67%
    18:00 -2°C° 0 mm 2 mps 658 mmHg 69%
    19:00 0°C° 0 mm 1 mps 658 mmHg 69%
    20:00 -1°C° 0 mm 1 mps 658 mmHg 68%
    21:00 -1°C° 0 mm 1 mps 658 mmHg 68%
    22:00 -1°C° 0 mm 1 mps 658 mmHg 68%
    23:00 -1°C° 0 mm 1 mps 658 mmHg 68%
    Mostrar más